SCP
-0 -0 0 -0 0 0 0 0 0 0 0 0 0 0 0 0 0 0 0 0 0 0 1 0 0 0 0 0 0 0 0 0 0 0 0 0 0 0 0 0 0 0 0 0
0 0 -0 -0 -0 0 0 0 -0 -0 0 0 0 0 0 0 0 0 0 0 0 0 0 0 0 0 0 0 0 0 0 0 0 0 0 0 0 0 0 0 0 0 0 0
-0 -0 -0 -0 -0 0 -0 0 -0 0 -0 0 0 0 -0 0 0 0 0 0 0 0 1 0 0 0 0 0 0 0 0 0 0 0 0 0 0 0 0 0 0 0 -0 0
0 0 0 0 0 0 0 0 0 0 0 0 0 0 0 0 0 0 0 0 0 0 1 0 0 0 0 0 0 0 0 0 0 0 0 0 0 0 0 0 0 -0 -0 0
0 0 -0 -0 0 0 0 -0 0 0 0 0 0 0 0 0 0 -0 0 0 0 1 1 0 0 0 0 0 0 0 0 -0 0 0 0 0 0 0 0 0 0 0 0 0
0 0 0 0 0 -0 0 0 0 0 0 0 0 0 0 0 0 0 0 0 0 1 1 0 0 -0 0 0 0 0 -0 -0 0 -0 -0 0 0 0 0 -0 0 0 -0 -0
0 0 0 0 0 -0 0 0 -0 -0 0 0 0 0 0 0 0 0 0 0 0 1 1 0 0 0 0 0 0 0 -0 -0 -0 -0 -0 0 -0 -0 -0 -0 -0 -0 -0 0
0 0 -0 -0 -0 -0 -0 -0 -0 -0 0 0 0 0 0 0 0 0 0 0 1 1 1 0 0 0 0 0 0 0 -0 -0 -0 -0 0 0 -0 -0 -0 -0 -0 0 0 0
0 0 0 -0 0 -0 -0 0 -0 -0 0 0 0 0 0 0 0 0 0 1 1 0 1 0 0 0 0 0 0 0 -0 -0 -0 -0 0 -0 -0 -0 -0 -0 0 0 0 0
0 0 -0 -0 0 -0 0 -0 -0 0 0 0 0 0 0 0 0 0 0 1 1 1 0 0 0 0 0 0 0 0 -0 -0 -0 0 0 -0 -0 -0 -0 0 0 0 -0 0
0 -0 -0 0 -0 0 -0 -0 -0 0 0 0 0 0 0 0 0 0 0 1 1 1 1 0 0 0 0 0 0 0 -0 -0 -0 -0 0 -0 -0 -0 0 0 0 0 -0 0
0 -0 -0 0 -0 0 -0 -0 -0 0 0 0 0 0 0 0 0 0 2 1 1 1 1 0 0 0 0 0 0 0 0 -0 -0 -0 -0 -0 -0 -0 -0 -0 0 -0 -0 0
0 0 0 0 -0 0 0 0 0 0 0 0 0 0 0 0 0 1 1 1 2 2 1 0 0 0 0 0 0 0 -0 -0 -0 -0 -0 -0 -0 -0 -0 0 0 -0 0 0
-0 -0 0 -0 0 0 0 0 0 0 0 0 0 0 0 0 0 0 1 1 1 1 1 1 0 0 0 0 0 0 -0 0 -0 -0 -0 0 0 0 -0 -0 0 0 0 0
-0 -0 -0 -0 0 0 0 0 0 0 0 0 0 0 0 0 0 0 0 0 0 1 1 0 1 1 0 0 0 0 0 0 -0 -0 -0 0 -0 -0 -0 0 0 0 0 0
-0 0 0 -0 -0 0 0 0 0 0 0 0 0 0 0 0 0 0 0 0 0 0 0 0 0 0 0 0 0 0 0 0 0 0 0 0 0 -0 -0 -0 -0 0 0 0
0 0 0 0 -0 0 -0 0 0 0 0 0 0 0 0 0 0 0 0 0 0 0 0 0 0 0 0 0 0 0 0 0 0 0 0 -0 0 -0 0 -0 -0 -0 0 -0
-0 0 0 0 -0 0 0 0 0 0 0 0 0 0 0 0 0 0 0 0 0 0 0 0 0 0 0 0 0 0 0 0 0 0 0 0 0 0 0 0 -0 -0 -0 -0
0 0 0 0 -0 0 -0 0 0 0 0 0 0 0 0 0 0 0 0 0 0 0 0 0 0 0 0 0 0 0 0 0 0 0 0 0 0 0 0 0 0 0 0 0
0 0 0 0 -0 -0 0 0 0 0 0 0 0 0 0 0 0 0 0 0 0 0 0 0 0 0 0 0 0 0 1 0 0 0 0 0 0 0 0 0 0 0 0 0
0 0 0 0 -0 0 0 0 0 0 0 0 0 0 0 0 0 0 0 0 0 0 0 0 0 0 0 0 0 0 0 0 1 1 0 0 0 0 0 0 0 0 0 0
0 0 0 0 0 -0 0 0 0 0 0 0 0 0 0 0 0 0 0 0 0 0 0 0 0 0 0 0 0 0 0 0 0 0 0 0 0 0 0 0 0 0 0 0
-0 0 0 0 0 0 0 0 0 0 0 0 0 0 0 0 0 0 0 0 0 0 0 0 0 0 0 0 0 0 0 0 0 0 0 0 0 0 0 0 0 0 0 0
0 0 0 0 0 -0 0 0 0 0 0 0 0 0 0 0 0 0 0 0 0 0 0 0 0 0 0 0 0 0 0 0 0 0 0 0 0 0 0 0 0 0 0 0
0 0 0 0 -0 0 -0 0 0 0 0 0 0 0 0 0 0 0 0 0 0 0 0 0 0 0 0 0 0 0 0 0 0 0 0 0 0 0 0 0 0 0 0 0
-0 -0 -0 -0 -0 0 0 0 0 0 0 0 0 0 0 0 0 0 0 0 0 0 0 0 0 0 0 0 0 0 0 0 0 0 0 0 0 0 0 0 0 0 0 0
-0 -0 -0 -0 -0 -0 0 0 0 0 0 0 0 0 0 0 0 0 0 0 0 0 0 0 0 0 0 0 0 0 0 0 0 0 0 0 0 0 0 0 0 0 0 0
Wind_Speed_500mb
40 37 35 34 36 36 39 38 37 41 36 37 37 36 35 45 55 55 42 38 34 30 4 18 30 37 40 41 42 42 39 34 32 30 28 28 26 24 25 25 23 23 23 22
34 35 37 41 43 44 47 43 45 44 48 45 49 57 53 52 49 44 40 40 34 27 4 24 32 38 41 42 43 40 37 34 30 28 29 28 26 24 25 27 26 26 25 22
29 19 24 28 34 35 39 41 36 40 40 39 42 38 39 45 45 44 42 42 39 26 14 31 38 40 44 44 42 39 36 34 30 29 29 26 24 23 25 30 28 26 25 25
10 18 19 5 19 22 29 34 33 35 38 46 46 53 45 41 40 41 43 40 30 26 12 36 41 43 44 44 42 40 37 33 29 30 28 26 24 22 25 29 28 28 26 25
8 11 24 28 4 3 5 27 35 40 36 38 39 38 39 42 41 29 29 35 32 26 18 40 47 48 48 46 43 41 39 34 30 30 28 25 25 24 24 28 28 26 28 24
8 9 7 10 19 27 8 12 26 30 27 27 34 18 16 13 20 31 36 33 31 21 27 47 52 52 53 50 47 45 41 35 29 31 27 23 22 23 22 22 26 26 29 23
20 17 6 12 28 10 8 11 38 40 42 36 20 24 45 46 46 40 40 36 27 19 35 50 51 55 55 51 48 45 42 36 31 29 26 22 20 19 22 24 27 29 25 20
8 9 7 32 22 6 14 47 41 43 35 38 39 36 40 43 42 41 37 31 21 27 39 52 54 57 55 51 48 46 43 37 36 32 26 21 20 19 20 23 26 27 22 17
5 7 25 27 29 30 38 43 45 38 40 40 33 38 41 42 41 38 33 26 19 32 43 51 55 57 55 51 51 49 44 40 38 30 25 22 19 17 16 19 22 21 20 19
21 14 27 33 25 37 44 51 48 41 39 32 33 38 42 41 36 34 27 20 26 38 48 51 56 54 49 51 52 50 46 43 38 30 25 22 17 13 14 16 21 19 20 21
18 21 37 11 45 42 53 61 43 36 27 27 35 39 39 36 36 32 25 18 34 41 48 51 57 53 49 51 52 51 47 43 37 29 25 23 19 16 13 17 17 22 19 19
15 32 33 43 50 48 55 60 47 26 27 34 32 35 33 32 24 21 20 30 33 38 46 51 53 51 51 50 52 50 47 44 40 32 26 23 19 19 23 19 22 28 22 20
25 36 42 45 49 47 48 49 33 17 37 35 26 27 25 21 14 10 22 32 35 35 46 51 51 49 49 50 49 48 45 42 40 33 30 26 22 18 18 27 29 26 28 26
24 38 43 44 48 42 41 33 29 34 25 25 19 18 14 7 23 22 32 34 33 28 39 45 46 44 43 44 45 44 42 42 37 35 31 27 24 20 18 22 25 25 26 23
33 33 36 41 41 39 43 34 44 42 52 28 4 9 22 28 32 30 27 33 38 37 35 41 37 32 33 38 40 40 41 40 39 35 32 29 26 23 22 21 22 22 28 27
32 33 38 36 44 45 40 37 41 42 42 38 29 34 34 39 35 33 32 35 29 40 38 38 34 39 41 28 35 39 38 40 42 37 34 32 29 26 25 24 24 22 24 25
34 40 41 41 42 43 41 37 41 48 51 38 34 32 34 37 46 42 34 31 38 34 27 24 28 27 24 35 25 36 38 38 46 37 34 34 31 29 25 25 25 22 22 23
22 27 30 31 34 40 39 38 37 36 41 34 33 45 41 46 47 44 44 32 31 34 29 21 15 17 7 22 30 34 40 37 46 40 35 34 31 30 28 24 23 24 24 24
25 29 31 27 28 36 39 38 37 36 39 41 50 49 46 46 48 45 39 44 42 24 25 13 7 17 26 19 37 35 38 40 39 40 35 33 33 31 29 27 24 22 24 22
22 27 28 26 26 30 35 40 38 44 40 38 45 51 48 50 52 55 58 53 50 54 27 20 32 21 27 13 37 29 27 33 35 40 34 33 32 29 27 26 26 24 22 18
21 23 26 29 25 26 30 31 32 35 37 46 49 46 52 53 55 55 60 68 58 44 36 20 33 7 1 22 31 40 42 32 25 26 27 27 26 26 23 21 23 22 21 20
18 20 22 25 27 27 30 29 28 28 30 36 39 36 41 50 58 59 58 61 57 45 44 34 43 26 26 29 36 38 38 37 40 42 43 39 35 33 36 33 36 29 21 18
15 18 20 22 25 26 27 32 31 28 28 29 30 32 40 50 45 56 57 55 58 54 55 49 39 37 31 34 38 36 31 33 34 36 37 36 35 33 36 37 38 39 39 37
12 14 16 19 21 24 29 30 32 32 31 32 28 25 29 41 48 51 51 54 54 53 57 62 60 55 57 58 55 51 50 47 48 48 51 49 44 39 32 27 27 26 25 20
11 13 16 18 20 22 25 25 28 31 33 35 34 33 31 35 38 40 44 50 50 51 54 46 55 65 68 71 71 67 64 62 56 51 49 49 48 48 49 48 43 34 33 29
13 10 12 18 20 20 22 22 28 29 30 34 35 33 33 35 37 36 36 38 42 47 50 56 58 58 62 67 65 65 66 64 61 60 57 55 51 49 48 47 46 41 39 34
18 15 12 13 17 19 20 23 27 29 31 34 38 36 36 38 42 42 42 42 45 52 58 55 56 59 56 56 58 62 65 60 59 58 58 55 51 48 47 46 44 44 42 41
Wind_Direction_500mb
269 271 280 276 268 262 256 256 264 266 267 266 279 295 310 301 300 301 312 323 336 345 326 175 166 161 157 154 152 151 150 148 148 151 149 149 152 159 163 162 163 166 163 165
292 284 271 271 267 260 254 249 254 258 265 273 277 280 281 287 291 302 309 316 321 324 261 192 172 163 160 157 156 154 150 152 154 153 150 152 155 161 165 165 166 168 169 166
267 282 294 270 264 253 254 250 255 256 260 263 266 270 275 284 289 295 298 306 310 306 269 196 177 167 161 160 158 156 154 154 156 157 154 155 158 169 174 176 171 169 169 163
277 312 247 44 32 3 333 301 288 286 283 270 265 267 275 276 282 291 293 300 305 307 247 189 176 166 163 164 162 159 156 154 156 156 156 158 166 173 180 177 168 168 164 163
248 248 280 272 310 0 284 287 295 282 274 276 278 259 262 267 272 282 294 295 298 296 222 184 174 168 166 167 165 161 158 153 151 155 155 160 169 174 171 171 169 167 170 172
259 263 290 64 349 316 257 255 357 337 316 311 338 263 249 20 309 296 293 296 295 287 191 181 172 168 168 169 166 163 160 157 153 154 155 155 169 168 162 170 172 166 175 173
249 251 257 15 332 327 271 356 312 316 307 305 296 275 304 305 299 296 292 295 289 236 187 179 171 170 170 169 168 164 161 158 156 156 156 159 156 166 160 162 163 163 165 178
300 266 0 356 337 302 291 299 297 296 290 290 287 294 294 288 293 295 293 291 272 197 181 177 172 171 171 171 167 164 161 158 157 155 152 155 152 159 167 164 165 165 162 165
248 261 289 312 283 310 319 309 313 293 286 283 278 291 290 291 293 293 290 284 236 184 178 175 173 174 171 170 167 165 163 162 162 162 160 162 155 151 168 170 163 166 179 180
310 348 327 321 287 325 323 314 305 300 288 276 291 291 288 289 291 292 290 271 200 180 174 171 173 174 172 168 167 166 165 166 168 166 168 167 164 154 170 183 170 174 179 182
295 345 332 322 329 333 327 319 299 301 275 285 293 289 286 290 292 289 277 224 183 177 171 172 171 172 171 167 168 168 168 170 171 172 168 167 162 163 169 190 180 177 171 179
328 339 326 320 322 331 318 311 306 298 282 292 291 288 284 283 290 288 271 176 170 167 168 169 168 170 170 169 170 171 172 176 177 177 173 170 171 165 176 185 171 162 172 172
318 321 319 320 325 324 317 331 333 290 300 293 295 283 272 277 300 220 152 151 155 158 165 164 164 167 170 171 172 174 175 177 181 180 180 177 169 165 173 179 174 175 172 179
326 327 327 332 328 327 335 343 332 322 315 311 284 262 253 83 101 104 93 103 117 136 144 159 162 166 167 171 176 180 179 181 183 182 182 176 173 165 168 178 173 176 176 172
337 338 337 334 346 343 350 359 346 358 359 9 324 216 122 111 104 100 100 108 99 105 119 132 148 154 174 177 182 183 184 186 184 183 181 174 170 166 166 164 166 172 175 170
340 350 352 353 351 350 357 2 352 1 12 29 47 70 82 84 87 102 119 121 114 102 110 131 150 164 160 168 190 188 187 188 183 184 183 179 175 171 173 170 167 176 169 175
353 354 358 353 352 353 359 5 0 10 18 37 49 59 75 76 86 87 99 125 134 118 96 89 116 135 180 173 183 193 190 192 184 185 186 184 181 179 177 178 179 178 174 186
3 359 1 357 358 354 4 15 13 28 34 19 57 76 65 74 78 81 87 109 131 112 94 66 88 77 141 210 185 196 192 189 187 190 190 190 189 188 186 180 179 180 179 197
11 7 7 11 7 11 14 23 30 31 43 29 54 66 71 69 71 74 81 83 89 128 76 40 350 336 300 272 204 183 194 191 190 191 192 192 190 186 185 187 183 178 180 201
18 17 19 21 18 17 25 26 37 43 48 48 53 63 70 73 72 71 71 77 75 70 62 70 239 305 294 198 181 175 172 185 192 194 193 193 190 192 192 191 190 187 182 191
29 27 27 28 31 26 32 26 30 37 36 53 54 55 62 65 78 79 78 76 73 82 84 99 122 229 314 162 178 169 159 150 162 180 186 189 189 185 180 178 181 181 182 184
36 39 39 37 41 39 34 35 41 43 47 49 58 55 62 70 74 76 77 79 79 79 82 65 94 111 132 166 160 160 161 156 151 153 149 150 152 153 152 147 145 141 142 149
48 43 51 47 45 51 47 46 48 52 55 59 59 59 65 73 74 79 78 80 82 82 85 81 82 92 112 115 120 129 143 154 161 160 161 159 158 158 158 157 160 162 164 166
78 71 68 63 58 55 54 52 55 58 60 65 68 82 86 80 82 79 86 90 89 86 81 85 82 86 89 95 103 111 120 128 129 134 136 140 132 129 138 143 141 139 141 144
103 89 87 76 62 59 60 56 61 63 65 69 73 75 80 86 91 84 81 80 85 88 90 89 91 85 82 87 89 91 93 97 101 105 107 113 117 116 117 117 118 114 116 117
124 93 84 87 87 76 69 68 72 68 68 68 66 68 72 74 74 74 76 80 82 79 80 83 79 78 81 82 85 88 89 90 90 89 89 87 84 82 80 78 81 80 87 95
146 127 110 96 89 92 93 88 83 79 76 77 78 73 72 74 76 79 81 79 77 77 80 78 76 78 78 78 79 78 80 84 87 85 85 83 80 76 71 69 68 67 68 68
Wind_Speed_850mb
40 37 35 34 36 36 39 38 37 41 36 37 37 36 35 45 55 55 42 38 34 30 4 18 30 37 40 41 42 42 39 34 32 30 28 28 26 24 25 25 23 23 23 22
34 35 37 41 43 44 47 43 45 44 48 45 49 57 53 52 49 44 40 40 34 27 4 24 32 38 41 42 43 40 37 34 30 28 29 28 26 24 25 27 26 26 25 22
29 19 24 28 34 35 39 41 36 40 40 39 42 38 39 45 45 44 42 42 39 26 14 31 38 40 44 44 42 39 36 34 30 29 29 26 24 23 25 30 28 26 25 25
10 18 19 5 19 22 29 34 33 35 38 46 46 53 45 41 40 41 43 40 30 26 12 36 41 43 44 44 42 40 37 33 29 30 28 26 24 22 25 29 28 28 26 25
8 11 24 28 4 3 5 27 35 40 36 38 39 38 39 42 41 29 29 35 32 26 18 40 47 48 48 46 43 41 39 34 30 30 28 25 25 24 24 28 28 26 28 24
8 9 7 10 19 27 8 12 26 30 27 27 34 18 16 13 20 31 36 33 31 21 27 47 52 52 53 50 47 45 41 35 29 31 27 23 22 23 22 22 26 26 29 23
20 17 6 12 28 10 8 11 38 40 42 36 20 24 45 46 46 40 40 36 27 19 35 50 51 55 55 51 48 45 42 36 31 29 26 22 20 19 22 24 27 29 25 20
8 9 7 32 22 6 14 47 41 43 35 38 39 36 40 43 42 41 37 31 21 27 39 52 54 57 55 51 48 46 43 37 36 32 26 21 20 19 20 23 26 27 22 17
5 7 25 27 29 30 38 43 45 38 40 40 33 38 41 42 41 38 33 26 19 32 43 51 55 57 55 51 51 49 44 40 38 30 25 22 19 17 16 19 22 21 20 19
21 14 27 33 25 37 44 51 48 41 39 32 33 38 42 41 36 34 27 20 26 38 48 51 56 54 49 51 52 50 46 43 38 30 25 22 17 13 14 16 21 19 20 21
18 21 37 11 45 42 53 61 43 36 27 27 35 39 39 36 36 32 25 18 34 41 48 51 57 53 49 51 52 51 47 43 37 29 25 23 19 16 13 17 17 22 19 19
15 32 33 43 50 48 55 60 47 26 27 34 32 35 33 32 24 21 20 30 33 38 46 51 53 51 51 50 52 50 47 44 40 32 26 23 19 19 23 19 22 28 22 20
25 36 42 45 49 47 48 49 33 17 37 35 26 27 25 21 14 10 22 32 35 35 46 51 51 49 49 50 49 48 45 42 40 33 30 26 22 18 18 27 29 26 28 26
24 38 43 44 48 42 41 33 29 34 25 25 19 18 14 7 23 22 32 34 33 28 39 45 46 44 43 44 45 44 42 42 37 35 31 27 24 20 18 22 25 25 26 23
33 33 36 41 41 39 43 34 44 42 52 28 4 9 22 28 32 30 27 33 38 37 35 41 37 32 33 38 40 40 41 40 39 35 32 29 26 23 22 21 22 22 28 27
32 33 38 36 44 45 40 37 41 42 42 38 29 34 34 39 35 33 32 35 29 40 38 38 34 39 41 28 35 39 38 40 42 37 34 32 29 26 25 24 24 22 24 25
34 40 41 41 42 43 41 37 41 48 51 38 34 32 34 37 46 42 34 31 38 34 27 24 28 27 24 35 25 36 38 38 46 37 34 34 31 29 25 25 25 22 22 23
22 27 30 31 34 40 39 38 37 36 41 34 33 45 41 46 47 44 44 32 31 34 29 21 15 17 7 22 30 34 40 37 46 40 35 34 31 30 28 24 23 24 24 24
25 29 31 27 28 36 39 38 37 36 39 41 50 49 46 46 48 45 39 44 42 24 25 13 7 17 26 19 37 35 38 40 39 40 35 33 33 31 29 27 24 22 24 22
22 27 28 26 26 30 35 40 38 44 40 38 45 51 48 50 52 55 58 53 50 54 27 20 32 21 27 13 37 29 27 33 35 40 34 33 32 29 27 26 26 24 22 18
21 23 26 29 25 26 30 31 32 35 37 46 49 46 52 53 55 55 60 68 58 44 36 20 33 7 1 22 31 40 42 32 25 26 27 27 26 26 23 21 23 22 21 20
18 20 22 25 27 27 30 29 28 28 30 36 39 36 41 50 58 59 58 61 57 45 44 34 43 26 26 29 36 38 38 37 40 42 43 39 35 33 36 33 36 29 21 18
15 18 20 22 25 26 27 32 31 28 28 29 30 32 40 50 45 56 57 55 58 54 55 49 39 37 31 34 38 36 31 33 34 36 37 36 35 33 36 37 38 39 39 37
12 14 16 19 21 24 29 30 32 32 31 32 28 25 29 41 48 51 51 54 54 53 57 62 60 55 57 58 55 51 50 47 48 48 51 49 44 39 32 27 27 26 25 20
11 13 16 18 20 22 25 25 28 31 33 35 34 33 31 35 38 40 44 50 50 51 54 46 55 65 68 71 71 67 64 62 56 51 49 49 48 48 49 48 43 34 33 29
13 10 12 18 20 20 22 22 28 29 30 34 35 33 33 35 37 36 36 38 42 47 50 56 58 58 62 67 65 65 66 64 61 60 57 55 51 49 48 47 46 41 39 34
18 15 12 13 17 19 20 23 27 29 31 34 38 36 36 38 42 42 42 42 45 52 58 55 56 59 56 56 58 62 65 60 59 58 58 55 51 48 47 46 44 44 42 41
Wind_Direction_850mb
269 271 280 276 268 262 256 256 264 266 267 266 279 295 310 301 300 301 312 323 336 345 326 175 166 161 157 154 152 151 150 148 148 151 149 149 152 159 163 162 163 166 163 165
292 284 271 271 267 260 254 249 254 258 265 273 277 280 281 287 291 302 309 316 321 324 261 192 172 163 160 157 156 154 150 152 154 153 150 152 155 161 165 165 166 168 169 166
267 282 294 270 264 253 254 250 255 256 260 263 266 270 275 284 289 295 298 306 310 306 269 196 177 167 161 160 158 156 154 154 156 157 154 155 158 169 174 176 171 169 169 163
277 312 247 44 32 3 333 301 288 286 283 270 265 267 275 276 282 291 293 300 305 307 247 189 176 166 163 164 162 159 156 154 156 156 156 158 166 173 180 177 168 168 164 163
248 248 280 272 310 0 284 287 295 282 274 276 278 259 262 267 272 282 294 295 298 296 222 184 174 168 166 167 165 161 158 153 151 155 155 160 169 174 171 171 169 167 170 172
259 263 290 64 349 316 257 255 357 337 316 311 338 263 249 20 309 296 293 296 295 287 191 181 172 168 168 169 166 163 160 157 153 154 155 155 169 168 162 170 172 166 175 173
249 251 257 15 332 327 271 356 312 316 307 305 296 275 304 305 299 296 292 295 289 236 187 179 171 170 170 169 168 164 161 158 156 156 156 159 156 166 160 162 163 163 165 178
300 266 0 356 337 302 291 299 297 296 290 290 287 294 294 288 293 295 293 291 272 197 181 177 172 171 171 171 167 164 161 158 157 155 152 155 152 159 167 164 165 165 162 165
248 261 289 312 283 310 319 309 313 293 286 283 278 291 290 291 293 293 290 284 236 184 178 175 173 174 171 170 167 165 163 162 162 162 160 162 155 151 168 170 163 166 179 180
310 348 327 321 287 325 323 314 305 300 288 276 291 291 288 289 291 292 290 271 200 180 174 171 173 174 172 168 167 166 165 166 168 166 168 167 164 154 170 183 170 174 179 182
295 345 332 322 329 333 327 319 299 301 275 285 293 289 286 290 292 289 277 224 183 177 171 172 171 172 171 167 168 168 168 170 171 172 168 167 162 163 169 190 180 177 171 179
328 339 326 320 322 331 318 311 306 298 282 292 291 288 284 283 290 288 271 176 170 167 168 169 168 170 170 169 170 171 172 176 177 177 173 170 171 165 176 185 171 162 172 172
318 321 319 320 325 324 317 331 333 290 300 293 295 283 272 277 300 220 152 151 155 158 165 164 164 167 170 171 172 174 175 177 181 180 180 177 169 165 173 179 174 175 172 179
326 327 327 332 328 327 335 343 332 322 315 311 284 262 253 83 101 104 93 103 117 136 144 159 162 166 167 171 176 180 179 181 183 182 182 176 173 165 168 178 173 176 176 172
337 338 337 334 346 343 350 359 346 358 359 9 324 216 122 111 104 100 100 108 99 105 119 132 148 154 174 177 182 183 184 186 184 183 181 174 170 166 166 164 166 172 175 170
340 350 352 353 351 350 357 2 352 1 12 29 47 70 82 84 87 102 119 121 114 102 110 131 150 164 160 168 190 188 187 188 183 184 183 179 175 171 173 170 167 176 169 175
353 354 358 353 352 353 359 5 0 10 18 37 49 59 75 76 86 87 99 125 134 118 96 89 116 135 180 173 183 193 190 192 184 185 186 184 181 179 177 178 179 178 174 186
3 359 1 357 358 354 4 15 13 28 34 19 57 76 65 74 78 81 87 109 131 112 94 66 88 77 141 210 185 196 192 189 187 190 190 190 189 188 186 180 179 180 179 197
11 7 7 11 7 11 14 23 30 31 43 29 54 66 71 69 71 74 81 83 89 128 76 40 350 336 300 272 204 183 194 191 190 191 192 192 190 186 185 187 183 178 180 201
18 17 19 21 18 17 25 26 37 43 48 48 53 63 70 73 72 71 71 77 75 70 62 70 239 305 294 198 181 175 172 185 192 194 193 193 190 192 192 191 190 187 182 191
29 27 27 28 31 26 32 26 30 37 36 53 54 55 62 65 78 79 78 76 73 82 84 99 122 229 314 162 178 169 159 150 162 180 186 189 189 185 180 178 181 181 182 184
36 39 39 37 41 39 34 35 41 43 47 49 58 55 62 70 74 76 77 79 79 79 82 65 94 111 132 166 160 160 161 156 151 153 149 150 152 153 152 147 145 141 142 149
48 43 51 47 45 51 47 46 48 52 55 59 59 59 65 73 74 79 78 80 82 82 85 81 82 92 112 115 120 129 143 154 161 160 161 159 158 158 158 157 160 162 164 166
78 71 68 63 58 55 54 52 55 58 60 65 68 82 86 80 82 79 86 90 89 86 81 85 82 86 89 95 103 111 120 128 129 134 136 140 132 129 138 143 141 139 141 144
103 89 87 76 62 59 60 56 61 63 65 69 73 75 80 86 91 84 81 80 85 88 90 89 91 85 82 87 89 91 93 97 101 105 107 113 117 116 117 117 118 114 116 117
124 93 84 87 87 76 69 68 72 68 68 68 66 68 72 74 74 74 76 80 82 79 80 83 79 78 81 82 85 88 89 90 90 89 89 87 84 82 80 78 81 80 87 95
146 127 110 96 89 92 93 88 83 79 76 77 78 73 72 74 76 79 81 79 77 77 80 78 76 78 78 78 79 78 80 84 87 85 85 83 80 76 71 69 68 67 68 68